Location: Asheville, NC
(35.6000°N, 82.5500°W)
Time: 02:44:50
(UTC-05:00)

SEEDS - Pass Details

Date: 11 January 2018
Orbit: 586 x 606 km, 97.5° (Epoch: 21 January)

Event Time Altitude Azimuth Distance (km) Brightness Sun altitude
Rises 20:19:13 0° 216° (SW) 2,844 ? -32.5°
Reaches altitude 10° 20:23:03 10° 252° (WSW) 1,945 ? -33.2°
Maximum altitude 20:24:16 11° 268° (W) 1,876 ? -33.5°
Drops below altitude 10° 20:25:29 10° 285° (WNW) 1,947 ? -33.7°
Sets 20:29:20 0° 322° (NW) 2,852 ? -34.5°
